Het weer op Woensdrecht:2015/01/31 00:25 EHWO 310025Z AUTO /////KT //// // ////// ///// Q//// RE//
Het weer op Amsterdam:2015/01/31 00:25 EHAM 310025Z 26013KT 9999 -SHRA FEW016 FEW022CB SCT048 03/00 Q0976 RERAGS NOSIG

Menu promotie
· De club
· Motor(zweefvliegen) bij de ACV
· De vloot
· Kennismaken met de ACV


Buien Radar


Inloggen voor leden
WelkomAnonymous!


Lid nummer    
Wachtwoord 
Code: Code
Type Code in
[Wachtwoord vergeten?]


Picasa foto link
ACV externe fotolink


 
Sorry, deze module is niet actief (acv_addon_4)

[ Ga terug ]
copyright (c) ACV 2006 - 2015

All logos and trademarks in this site are property of their respective owner. The comments are property of their posters, all the rest 2005 by me.
PHP-Nuke Copyright © 2005 by Francisco Burzi. This is free software, and you may redistribute it under the GPL. PHP-Nuke comes with absolutely no warranty, for details, see the license.
Pagina Rendering: 0.44 Seconden